Flag for Syria Weather past 2 weeks in Damascus, Syria

Now
68 °F

Clear.


Feels Like: 68 °F
Forecast: 56 / 97 °F
Wind: 9 mph from Southwest

Location: Damascus Int. Airport

Current Time: Sep 3, 2014 at 3:34:50 AM

Latest Report: Sep 3, 2014 at 3:00 AM


Visibility: 10 mi

Pressure: 29.86 "Hg

Humidity: 78%

Dew point: 61 °F

Location of DamascusLocation

Historic Weather in Damascus — Graph

°F

Damascus temperature yesterday

Maximum temperature yesterday: 95 °F (at 4:00 PM)
Minimum temperature yesterday: 68 °F (at 4:00 AM)
Average temperature yesterday: 78 °F

Past Weeks' High & Low Weather Summary

 TemperatureHumidityPressure
High106 °F (Aug 24, 5:00 PM)100% (Aug 19, 7:00 PM)30.01 "Hg (Aug 19, 7:00 PM)
Low36 °F (Aug 19, 7:00 PM)5% (Aug 21, 4:00 PM)29.71 "Hg (Aug 24, 6:00 PM)
Average82 °F47%29.84 "Hg
* Reported Aug 19 2:00 AM — Sep 3 2:00 AM, Damascus, Weather by CustomWeather, © 2014

Note: Actual official high and low records may vary slightly from our data, if they occured in-between our weather recording intervals... More about our weather records

Advertising

Damascus weather history for previous 24 hours

 ConditionsComfort  
Time TempWeatherWind HumidityBarometerVisibility
2:00 AM
Sep 3
68 °FClear.16 mph73%29.86 "Hg10 mi
1:00 AM70 °FClear.9 mph78%29.86 "Hg10 mi
12:00 AM70 °FClear.25 mph69%29.86 "Hg10 mi
11:00 PM
Sep 2
72 °FClear.30 mph65%29.86 "Hg10 mi
10:00 PM73 °FClear.32 mph61%29.86 "Hg10 mi
9:00 PM75 °FClear.30 mph57%29.83 "Hg10 mi
8:00 PM79 °FClear.23 mph48%29.80 "Hg10 mi
7:00 PM84 °FSunny.23 mph40%29.80 "Hg10 mi
6:00 PM90 °FSunny.23 mph31%29.77 "Hg10 mi
5:00 PM91 °FSunny.28 mph30%29.77 "Hg10 mi
4:00 PM95 °FSunny.23 mph25%29.77 "Hg10 mi
3:00 PM93 °FSunny.21 mph26%29.77 "Hg10 mi
2:00 PM91 °FSunny.16 mph32%29.80 "Hg10 mi
1:00 PM90 °FSunny.12 mph38%29.80 "Hg10 mi
12:00 PM86 °FSunny.12 mph49%29.83 "Hg10 mi
11:00 AM81 °FSunny.5 mph58%29.83 "Hg10 mi
10:00 AM79 °FSunny.9 mph61%29.86 "Hg10 mi
9:00 AM75 °FSunny.9 mph65%29.86 "Hg10 mi
8:00 AM70 °FSunny.18 mph73%29.83 "Hg10 mi
7:00 AM68 °FClear.16 mph78%29.83 "Hg10 mi
6:00 AM68 °FClear.18 mph78%29.83 "Hg10 mi
5:00 AM68 °FClear.21 mph78%29.80 "Hg10 mi
4:00 AM68 °FClear.18 mph78%29.80 "Hg10 mi
3:00 AM70 °FClear.18 mph73%29.80 "Hg10 mi
Weather by CustomWeather, © 2014

See weather overviewHow to use our weather pages